When you browse on this site, cookies collect data to enhance your experience and personalize the content and advertising you see.
Visit our Privacy Policy to learn more. By continuing to use the site, you agree to this use of cookies and data.
  • In Österreich
  • Länderverzeichnis
  • Für 7 Tage
  • Wassertemperatur
  • Wetterkarte
  • News
  • Widgets
  • user-avatar
    Anmelden

    Stündliche Wetter Mosquera

    Heute, 22 September, Sonntag

    Zeit Temperatur Niederschläge Wind Luftdruck Luftfeuchtigkeit
    00:00 +11°C° 0.1 mm 1 m/S 561 mmHg 84%
    01:00 +11°C° 0.1 mm 1 m/S 561 mmHg 84%
    02:00 +11°C° 0.1 mm 1 m/S 561 mmHg 84%
    03:00 +11°C° 0.1 mm 1 m/S 561 mmHg 84%
    04:00 +11°C° 0.1 mm 1 m/S 560 mmHg 85%
    05:00 +11°C° 0 mm 1 m/S 561 mmHg 83%
    06:00 +12°C° 0 mm 1 m/S 562 mmHg 82%
    07:00 +13°C° 0 mm 1 m/S 563 mmHg 81%
    08:00 +14°C° 0.2 mm 1 m/S 564 mmHg 77%
    09:00 +16°C° 0.2 mm 1 m/S 564 mmHg 73%
    10:00 +19°C° 0.2 mm 1 m/S 565 mmHg 68%
    11:00 +19°C° 0.8 mm 1 m/S 565 mmHg 70%
    12:00 +18°C° 0.8 mm 2 m/S 564 mmHg 71%
    13:00 +18°C° 0.8 mm 2 m/S 563 mmHg 73%
    14:00 +18°C° 1.2 mm 2 m/S 563 mmHg 74%
    15:00 +18°C° 1.2 mm 1 m/S 562 mmHg 74%
    16:00 +18°C° 1.2 mm 1 m/S 561 mmHg 75%
    17:00 +16°C° 0.8 mm 1 m/S 561 mmHg 79%
    18:00 +14°C° 0.8 mm 1 m/S 561 mmHg 83%
    19:00 +13°C° 0.8 mm 1 m/S 561 mmHg 87%
    20:00 +12°C° 0.2 mm 1 m/S 561 mmHg 87%
    21:00 +12°C° 0.2 mm 1 m/S 561 mmHg 86%
    22:00 +12°C° 0.2 mm 1 m/S 561 mmHg 85%
    23:00 +11°C° 0.1 mm 1 m/S 561 mmHg 85%

    Morgen, 23 September, Montag

    Zeit Temperatur Niederschläge Wind Luftdruck Luftfeuchtigkeit
    00:00 +11°C° 0.1 mm 1 m/S 561 mmHg 85%
    01:00 +11°C° 0.1 mm 1 m/S 561 mmHg 85%
    02:00 +11°C° 0.2 mm 1 m/S 561 mmHg 84%
    03:00 +11°C° 0.2 mm 1 m/S 561 mmHg 84%
    04:00 +11°C° 0.2 mm 1 m/S 561 mmHg 84%
    05:00 +11°C° 0.2 mm 1 m/S 562 mmHg 83%
    06:00 +12°C° 0.2 mm 1 m/S 562 mmHg 82%
    07:00 +13°C° 0.2 mm 1 m/S 563 mmHg 81%
    08:00 +14°C° 0.2 mm 1 m/S 564 mmHg 75%
    09:00 +16°C° 0.2 mm 1 m/S 564 mmHg 70%
    10:00 +19°C° 0.2 mm 1 m/S 565 mmHg 64%
    11:00 +18°C° 0.5 mm 2 m/S 565 mmHg 67%
    12:00 +18°C° 0.5 mm 2 m/S 564 mmHg 69%
    13:00 +18°C° 0.5 mm 2 m/S 563 mmHg 72%
    14:00 +17°C° 0.8 mm 2 m/S 563 mmHg 74%
    15:00 +17°C° 0.8 mm 2 m/S 562 mmHg 76%
    16:00 +16°C° 0.8 mm 1 m/S 561 mmHg 79%
    17:00 +15°C° 0.3 mm 1 m/S 561 mmHg 81%
    18:00 +14°C° 0.3 mm 1 m/S 561 mmHg 83%
    19:00 +13°C° 0.3 mm 1 m/S 561 mmHg 85%
    20:00 +13°C° 0.1 mm 1 m/S 561 mmHg 84%
    21:00 +13°C° 0.1 mm 1 m/S 562 mmHg 83%
    22:00 +12°C° 0.1 mm 0 m/S 562 mmHg 82%
    23:00 +12°C° 0.1 mm 0 m/S 562 mmHg 82%

    übermorgen, 24 September, Dienstag

    Zeit Temperatur Niederschläge Wind Luftdruck Luftfeuchtigkeit
    00:00 +11°C° 0.1 mm 0 m/S 561 mmHg 83%
    01:00 +12°C° 0.1 mm 1 m/S 561 mmHg 84%
    02:00 +10°C° 0 mm 0 m/S 561 mmHg 84%
    03:00 +10°C° 0 mm 0 m/S 561 mmHg 85%
    04:00 +10°C° 0 mm 0 m/S 561 mmHg 85%
    05:00 +10°C° 0 mm 0 m/S 561 mmHg 84%
    06:00 +11°C° 0 mm 0 m/S 562 mmHg 83%
    07:00 +12°C° 0 mm 0 m/S 563 mmHg 81%
    08:00 +15°C° 0 mm 1 m/S 564 mmHg 75%
    09:00 +16°C° 0 mm 1 m/S 564 mmHg 69%
    10:00 +18°C° 0 mm 2 m/S 565 mmHg 63%
    11:00 +18°C° 0.3 mm 2 m/S 565 mmHg 65%
    12:00 +18°C° 0.3 mm 2 m/S 564 mmHg 66%
    13:00 +19°C° 0.3 mm 2 m/S 563 mmHg 67%
    14:00 +18°C° 0.6 mm 2 m/S 563 mmHg 70%
    15:00 +17°C° 0.6 mm 2 m/S 562 mmHg 72%
    16:00 +17°C° 0.6 mm 2 m/S 562 mmHg 74%
    17:00 +16°C° 1 mm 1 m/S 562 mmHg 78%
    18:00 +15°C° 1 mm 1 m/S 561 mmHg 82%
    19:00 +14°C° 1 mm 1 m/S 561 mmHg 86%
    20:00 +13°C° 0.4 mm 1 m/S 562 mmHg 86%
    21:00 +13°C° 0.4 mm 1 m/S 562 mmHg 87%
    22:00 +13°C° 0.4 mm 1 m/S 562 mmHg 87%
    23:00 +12°C° 0.1 mm 0 m/S 562 mmHg 87%

    25 September, Mittwoch

    Zeit Temperatur Niederschläge Wind Luftdruck Luftfeuchtigkeit
    00:00 +12°C° 0.1 mm 0 m/S 562 mmHg 86%
    01:00 +11°C° 0.1 mm 0 m/S 562 mmHg 86%
    02:00 +11°C° 0.1 mm 0 m/S 561 mmHg 87%
    03:00 +11°C° 0.1 mm 0 m/S 561 mmHg 88%
    04:00 +11°C° 0.1 mm 0 m/S 561 mmHg 88%
    05:00 +11°C° 0.1 mm 0 m/S 562 mmHg 87%
    06:00 +12°C° 0.1 mm 0 m/S 563 mmHg 86%
    07:00 +12°C° 0.1 mm 0 m/S 563 mmHg 84%
    08:00 +14°C° 0.4 mm 1 m/S 564 mmHg 82%
    09:00 +15°C° 0.4 mm 1 m/S 564 mmHg 79%
    10:00 +16°C° 0.4 mm 1 m/S 565 mmHg 77%
    11:00 +16°C° 1 mm 1 m/S 564 mmHg 77%
    12:00 +16°C° 1 mm 1 m/S 563 mmHg 76%
    13:00 +18°C° 1 mm 1 m/S 563 mmHg 76%
    14:00 +16°C° 0.9 mm 1 m/S 563 mmHg 78%
    15:00 +16°C° 0.9 mm 1 m/S 562 mmHg 79%
    16:00 +16°C° 0.9 mm 1 m/S 562 mmHg 81%
    17:00 +15°C° 0.7 mm 1 m/S 562 mmHg 83%
    18:00 +14°C° 0.7 mm 1 m/S 561 mmHg 85%
    19:00 +13°C° 0.7 mm 1 m/S 561 mmHg 87%
    20:00 +13°C° 0.2 mm 1 m/S 561 mmHg 86%
    21:00 +12°C° 0.2 mm 1 m/S 562 mmHg 86%
    22:00 +12°C° 0.2 mm 1 m/S 562 mmHg 85%
    23:00 +12°C° 0.1 mm 1 m/S 562 mmHg 85%

    26 September, Donnerstag

    Zeit Temperatur Niederschläge Wind Luftdruck Luftfeuchtigkeit
    00:00 +12°C° 0.1 mm 1 m/S 561 mmHg 85%
    01:00 +11°C° 0.1 mm 1 m/S 561 mmHg 86%
    02:00 +11°C° 0.1 mm 1 m/S 561 mmHg 86%
    03:00 +11°C° 0.1 mm 1 m/S 561 mmHg 85%
    04:00 +11°C° 0.1 mm 1 m/S 560 mmHg 85%
    05:00 +12°C° 0.1 mm 1 m/S 561 mmHg 84%
    06:00 +12°C° 0.1 mm 1 m/S 562 mmHg 82%
    07:00 +12°C° 0.1 mm 0 m/S 563 mmHg 81%
    08:00 +15°C° 0.1 mm 1 m/S 564 mmHg 73%
    09:00 +16°C° 0.1 mm 1 m/S 565 mmHg 66%
    10:00 +19°C° 0.1 mm 1 m/S 566 mmHg 59%
    11:00 +19°C° 0.3 mm 1 m/S 565 mmHg 59%
    12:00 +19°C° 0.3 mm 2 m/S 564 mmHg 59%
    13:00 +19°C° 0.3 mm 2 m/S 563 mmHg 59%
    14:00 +18°C° 0.4 mm 2 m/S 563 mmHg 63%
    15:00 +18°C° 0.4 mm 2 m/S 562 mmHg 66%
    16:00 +18°C° 0.4 mm 1 m/S 562 mmHg 70%
    17:00 +15°C° 0.2 mm 1 m/S 561 mmHg 75%
    18:00 +14°C° 0.2 mm 1 m/S 561 mmHg 79%
    19:00 +12°C° 0.2 mm 1 m/S 560 mmHg 83%
    20:00 +12°C° 0 mm 1 m/S 561 mmHg 82%
    21:00 +12°C° 0 mm 1 m/S 561 mmHg 80%
    22:00 +12°C° 0 mm 1 m/S 561 mmHg 79%
    23:00 +11°C° 0 mm 1 m/S 561 mmHg 79%

    27 September, Freitag

    Zeit Temperatur Niederschläge Wind Luftdruck Luftfeuchtigkeit
    00:00 +11°C° 0 mm 1 m/S 561 mmHg 79%
    01:00 +11°C° 0 mm 1 m/S 560 mmHg 79%
    02:00 +11°C° 0 mm 1 m/S 560 mmHg 78%
    03:00 +10°C° 0 mm 1 m/S 560 mmHg 77%
    04:00 +10°C° 0 mm 1 m/S 560 mmHg 76%
    05:00 +11°C° 0 mm 1 m/S 561 mmHg 74%
    06:00 +12°C° 0 mm 1 m/S 562 mmHg 72%
    07:00 +13°C° 0 mm 1 m/S 563 mmHg 71%
    08:00 +15°C° 0 mm 1 m/S 564 mmHg 66%
    09:00 +16°C° 0 mm 1 m/S 564 mmHg 61%
    10:00 +19°C° 0 mm 1 m/S 565 mmHg 56%
    11:00 +19°C° 0.2 mm 1 m/S 565 mmHg 60%
    12:00 +18°C° 0.2 mm 2 m/S 564 mmHg 63%
    13:00 +18°C° 0.2 mm 2 m/S 563 mmHg 66%
    14:00 +18°C° 0.8 mm 2 m/S 562 mmHg 69%
    15:00 +18°C° 0.8 mm 1 m/S 562 mmHg 73%
    16:00 +18°C° 0.8 mm 1 m/S 561 mmHg 76%
    17:00 +16°C° 0.7 mm 1 m/S 561 mmHg 79%
    18:00 +14°C° 0.7 mm 1 m/S 561 mmHg 82%
    19:00 +13°C° 0.7 mm 1 m/S 561 mmHg 85%
    20:00 +13°C° 0.1 mm 1 m/S 561 mmHg 85%
    21:00 +12°C° 0.1 mm 1 m/S 561 mmHg 85%
    22:00 +12°C° 0.1 mm 1 m/S 561 mmHg 84%
    23:00 +12°C° 0 mm 1 m/S 561 mmHg 85%
    Mehr zeigen